Content
SEND FEEDBACK

Daily
Averages
Monthly
Summary
United States of America

HAINES, ALASKA


Home > North America > United States > Alaska
Elevation: 1372 feet     Latitude: 59 15N     Longitude: 135 31W

WEATHER
 
SELECT A DAY
Number of Records: 197,692;   Date Range: 6/13/96 - 12/18/14
 
SHARE

PRINT THIS DATA

[ ← Previous Day ]
WEATHER ALMANAC - JANUARY 23, 2013
[ Next Day → ]
[ °C ]   °F
Weather ElementAverageHighLow
Temperature33.7 °F37 °F (11:54 pm)32 °F (7:06 pm)
Dewpoint32.1 °F34 °F (9:54 pm)30 °F (5:54 am)
Humidity94.1 %100 % (2:02 pm)87 % (4:06 am)
Barometer29.61 in29.65 in (11:54 pm)29.59 in (4:06 am)
Wind Speed3.6 mph11.5 mph (10:54 pm)
Wind Gust19.6 mph (10:54 pm)
Weather ElementAverage
Visibility5.5 mi
Wind DirectionE (87.1 °)

Weather ElementTotal
Precipitation0.28 in
Heating Degree Days30.5 (Base 65)
Averaged from 41 records on January 23, 2013
WEATHER CONDITIONS BREAKOUT
WIND DIRECTION BREAKOUT
WEATHER BY HOUR - JANUARY 23, 2013
[ °C ]   °F
Local TimeTemperatureDewpointHumidityBarometerVisibilityWind DirectionWind SpeedGust SpeedPrecipitationEventsConditions
12:36 AM33.8 °F32.0 °F93 %29.63 in2.5 miCalm0.02 inSnowLight Snow
12:38 AM33.8 °F32.0 °F93 %29.63 in3.0 miCalm0.02 inSnowLight Snow
12:54 AM33.1 °F32.0 °F96 %29.64 in3.0 miCalm0.03 inSnowLight Snow
1:54 AM33.1 °F30.9 °F92 %29.63 in6.0 miNNW (330°)3.5 mph0.00 inSnowLight Snow
2:54 AM33.1 °F30.9 °F92 %29.62 in7.0 miSSE (150°)5.8 mph0.01 inSnowLight Snow
3:54 AM33.1 °F30.9 °F92 %29.61 in4.0 miCalm0.00 inSnowLight Snow
4:06 AM33.8 °F30.2 °F87 %29.59 in4.0 miCalm0.00 inSnowLight Snow
4:22 AM33.8 °F30.2 °F87 %29.59 in8.0 miNW (310°)4.6 mph0.00 inSnowLight Snow
4:54 AM33.1 °F32.0 °F96 %29.60 in10.0 miWNW (290°)4.6 mph0.00 inOvercast
5:54 AM33.1 °F30.0 °F89 %29.59 in7.0 miSouth (190°)6.9 mph0.01 inSnowLight Snow
6:54 AM33.1 °F30.9 °F92 %29.59 in5.0 miNW (310°)3.5 mph0.00 inSnowLight Snow
7:54 AM33.1 °F32.0 °F96 %29.60 in7.0 miCalm0.00 inSnowLight Snow
8:54 AM33.1 °F32.0 °F96 %29.60 in4.0 miCalm0.00 inSnowLight Snow
9:42 AM33.8 °F30.2 °F87 %29.60 in2.0 miEast (80°)3.5 mph0.00 inSnowLight Snow
9:54 AM33.1 °F32.0 °F96 %29.61 in4.0 miEast (100°)4.6 mph0.00 inSnowLight Snow
10:08 AM33.8 °F30.2 °F87 %29.61 in1.8 miESE (110°)4.6 mph0.00 inSnowLight Snow
10:24 AM33.8 °F32.0 °F93 %29.61 in3.0 miCalm0.00 inSnowLight Snow
10:54 AM33.1 °F32.0 °F96 %29.62 in5.0 miEast (100°)4.6 mph0.00 inSnowLight Snow
11:37 AM33.8 °F32.0 °F93 %29.61 in9.0 miESE (120°)6.9 mph0.01 inOvercast
11:54 AM34.0 °F32.0 °F92 %29.61 in9.0 miESE (120°)6.9 mph0.01 inOvercast
12:27 PM33.8 °F32.0 °F93 %29.60 in1.8 miSE (130°)5.8 mph0.00 inSnowLight Snow
12:51 PM33.8 °F32.0 °F93 %29.60 in2.5 miEast (100°)4.6 mph0.01 inSnowLight Snow
12:54 PM33.1 °F32.0 °F96 %29.61 in3.0 miEast (90°)3.5 mph0.01 inSnowLight Snow
1:54 PM34.0 °F33.1 °F96 %29.61 in2.5 miEast (100°)4.6 mph0.01 inSnowLight Snow
2:02 PM33.8 °F33.8 °F100 %29.60 in2.5 miEast (90°)4.6 mph0.00 inSnowLight Snow
2:10 PM33.8 °F33.8 °F100 %29.60 in3.0 miEast (90°)5.8 mph0.00 inSnowLight Snow
2:33 PM33.8 °F33.8 °F100 %29.60 in9.0 miEast (100°)3.5 mph0.00 inOvercast
2:54 PM33.1 °F33.1 °F100 %29.60 in8.0 miEast (90°)3.5 mph0.00 inOvercast
3:23 PM33.8 °F32.0 °F93 %29.59 in4.0 miEast (90°)6.9 mph0.01 inSnowLight Snow
3:54 PM33.1 °F32.0 °F96 %29.60 in5.0 miESE (110°)5.8 mph0.01 inOvercast
4:54 PM34.0 °F33.1 °F96 %29.60 in10.0 miSE (130°)3.5 mph0.00 inRainLight Rain
5:54 PM34.0 °F33.1 °F96 %29.60 in9.0 miCalm0.01 inRainLight Rain
6:08 PM33.8 °F33.8 °F100 %29.59 in7.0 miCalm0.00 inSnowLight Snow
6:50 PM33.8 °F32.0 °F93 %29.60 in4.0 miCalm0.02 inSnowLight Snow
6:54 PM33.1 °F32.0 °F96 %29.61 in3.0 miCalm0.02 inSnowLight Snow
7:06 PM32.0 °F32.0 °F100 %29.60 in3.0 miCalm0.01 inSnowLight Snow
7:54 PM33.1 °F32.0 °F96 %29.62 in5.0 miCalm0.03 inSnowLight Snow
8:54 PM33.1 °F32.0 °F96 %29.62 in10.0 miVariable3.5 mph0.02 inRainLight Rain
9:54 PM36.0 °F34.0 °F93 %29.63 in10.0 miEast (100°)9.2 mph0.01 inRainLight Rain
10:54 PM36.0 °F34.0 °F93 %29.64 in10.0 miENE (70°)11.5 mph19.6 mph0.00 inRainLight Rain
11:54 PM37.0 °F34.0 °F89 %29.65 in10.0 miENE (70°)10.4 mph17.3 mph0.00 inOvercast
Hourly data recorded from PAHN, located miles away from Haines, Alaska







STORIES FROM OUR PARTNERS